EW8080 Weather Reports


time (UTC)temp
F
wind
direction
speed
knots
gust
knots
rain 1hr
in
rain 24hr
in
rain mn
in
humidity
%
barometer
mb
20260507051004 55 197 2.6 8.7 0.00 0.08 0.00 96 1007.3
20260507050003 55 214 4.3 8.7 0.00 0.08 0.00 96 1007.8
20260507045003 55 218 3.5 8.7 0.00 0.08 0.00 96 1007.4
20260507044003 55 224 4.3 7.8 0.00 0.08 0.00 96 1007.4
20260507043003 55 207 5.2 7.8 0.00 0.08 0.00 96 1007.3
20260507042003 55 205 3.5 11.3 0.00 0.08 0.00 96 1007.4
20260507041003 55 211 4.3 11.3 0.00 0.08 0.00 97 1007.4
20260507040004 55 219 6.1 11.3 0.00 0.08 0.00 97 1007.7
20260507035003 55 224 3.5 10.4 0.00 0.08 0.08 97 1007.9
20260507034004 55 222 5.2 12.2 0.00 0.08 0.08 97 1007.5
20260507033024 55 223 5.2 16.5 0.00 0.08 0.08 97 1007.9
20260507032003 55 240 7.8 16.5 0.00 0.08 0.08 97 1007.8
20260507031003 55 217 5.2 16.5 0.00 0.08 0.08 97 1007.5
20260507030003 55 213 7.8 16.5 0.00 0.08 0.08 97 1007.4
20260507025003 55 209 8.7 12.2 0.00 0.08 0.08 97 1007.5
20260507024003 55 218 7.0 14.8 0.00 0.08 0.08 97 1007.5
20260507023024 56 222 7.0 16.5 0.00 0.08 0.08 97 1007.7
20260507022003 56 213 8.7 16.5 0.00 0.08 0.08 97 1007.8
20260507021024 56 214 7.0 16.5 0.00 0.08 0.08 97 1007.9
20260507020003 56 219 8.7 16.5 0.00 0.08 0.08 97 1008.0
20260507015003 56 223 8.7 13.9 0.00 0.08 0.08 97 1008.3
20260507014003 56 221 7.0 16.5 0.00 0.08 0.08 97 1008.1
20260507013003 56 233 9.6 18.2 0.01 0.08 0.08 97 1008.5
20260507012003 56 231 9.6 18.2 0.01 0.08 0.08 97 1008.6
20260507011003 56 215 7.0 15.6 0.01 0.07 0.07 97 1008.5
20260507010004 56 226 8.7 20.0 0.01 0.07 0.07 97 1008.4
20260507005024 56 227 7.8 22.6 0.01 0.07 0.07 97 1008.4
20260507004003 56 231 9.6 22.6 0.02 0.07 0.07 97 1008.6
20260507003003 56 245 10.4 21.7 0.02 0.07 0.07 97 1008.4
20260507002003 56 231 7.8 16.5 0.02 0.07 0.07 97 1008.4
20260507001003 56 222 11.3 19.1 0.02 0.07 0.07 97 1008.5
20260507000003 56 231 12.2 21.7 0.03 0.07 0.07 97 1008.3
20260506235003 56 206 7.8 21.7 0.03 0.06 0.06 96 1008.4
20260506234003 56 207 10.4 18.2 0.04 0.06 0.06 96 1008.5
20260506233003 56 208 8.7 17.4 0.04 0.05 0.05 96 1008.3
20260506232003 56 218 9.6 22.6 0.04 0.05 0.05 96 1008.1
20260506231003 56 226 9.6 22.6 0.03 0.05 0.05 96 1008.1
20260506230003 56 198 11.3 23.5 0.03 0.04 0.04 95 1008.6
20260506225003 57 222 12.2 23.5 0.02 0.03 0.03 94 1008.6
20260506224003 57 224 9.6 20.9 0.02 0.02 0.02 93 1008.5
20260506223003 57 222 9.6 20.9 0.01 0.02 0.02 93 1008.6
20260506222003 57 227 10.4 21.7 0.01 0.02 0.02 91 1008.8
20260506221003 58 219 12.2 21.7 0.00 0.01 0.01 90 1008.9
20260506220003 59 226 9.6 18.2 0.00 0.01 0.01 88 1008.8
20260506215003 59 212 10.4 20.9 0.00 0.01 0.01 86 1008.9
20260506214024 59 219 10.4 20.9 0.01 0.01 0.01 85 1009.0
20260506213003 60 197 9.6 17.4 0.01 0.01 0.01 86 1009.1
20260506212003 60 215 8.7 17.4 0.01 0.01 0.01 85 1009.1
20260506211003 60 211 13.0 17.4 0.01 0.01 0.01 85 1009.2
20260506210003 60 201 12.2 18.2 0.00 0.00 0.00 83 1009.4
20260506205024 60 232 8.7 18.2 0.00 0.00 0.00 83 1009.3
20260506204003 61 243 9.6 22.6 0.00 0.00 0.00 82 1009.3
20260506203003 61 205 7.0 22.6 0.00 0.00 0.00 83 1009.5
20260506202003 61 226 10.4 18.2 0.00 0.00 0.00 81 1009.5
20260506201024 61 209 9.6 18.2 0.00 0.00 0.00 79 1009.4
20260506200003 61 215 7.8 17.4 0.00 0.00 0.00 80 1009.9
20260506195003 62 232 7.8 17.4 0.00 0.00 0.00 78 1009.9
20260506194003 62 235 8.7 17.4 0.00 0.00 0.00 77 1010.1
20260506193003 62 224 8.7 16.5 0.00 0.00 0.00 77 1010.2
20260506192003 62 205 7.8 16.5 0.00 0.00 0.00 78 1010.2
20260506191003 63 212 9.6 20.0 0.00 0.00 0.00 76 1010.2
20260506190024 63 228 7.8 24.3 0.00 0.00 0.00 76 1010.3
20260506185024 64 219 12.2 24.3 0.00 0.00 0.00 75 1010.2
20260506184003 64 219 9.6 23.5 0.00 0.00 0.00 75 1010.5
20260506183003 64 214 9.6 23.5 0.00 0.00 0.00 74 1010.6
20260506182003 64 222 7.0 23.5 0.00 0.00 0.00 75 1010.6
20260506181003 64 221 12.2 21.7 0.00 0.00 0.00 74 1011.0
20260506180004 65 225 12.2 29.5 0.00 0.00 0.00 73 1011.1
20260506175003 66 229 12.2 29.5 0.00 0.00 0.00 72 1011.3
20260506174003 67 233 12.2 23.5 0.00 0.00 0.00 71 1011.3
20260506173004 66 213 12.2 23.5 0.00 0.00 0.00 71 1011.5
20260506172003 67 219 11.3 16.5 0.00 0.00 0.00 72 1011.5
20260506171003 67 229 10.4 22.6 0.00 0.00 0.00 74 1011.5
20260506170003 65 235 8.7 24.3 0.00 0.00 0.00 74 1011.9
20260506165003 64 220 9.6 24.3 0.00 0.00 0.00 75 1012.0
20260506164003 65 217 11.3 22.6 0.00 0.00 0.00 74 1012.0
20260506163003 66 216 12.2 22.6 0.00 0.00 0.00 71 1012.1
20260506162003 67 233 11.3 21.7 0.00 0.00 0.00 71 1012.4
20260506161002 68 220 10.4 21.7 0.00 0.00 0.00 69 1012.4
20260506160003 67 214 10.4 26.1 0.00 0.00 0.00 70 1012.4
20260506155003 67 211 9.6 26.1 0.00 0.00 0.00 71 1012.6
20260506154002 66 230 9.6 24.3 0.00 0.00 0.00 71 1012.6
20260506153002 67 201 13.0 26.1 0.00 0.00 0.00 72 1012.8
20260506152003 67 214 13.9 26.9 0.00 0.00 0.00 71 1012.9
20260506151003 68 229 13.9 26.9 0.00 0.00 0.00 70 1012.8
20260506150003 68 210 13.0 26.9 0.00 0.00 0.00 70 1012.7
20260506145003 66 219 10.4 23.5 0.00 0.00 0.00 73 1012.8
20260506144024 66 223 12.2 26.9 0.00 0.00 0.00 70 1012.6
20260506143003 66 215 10.4 26.9 0.00 0.00 0.00 72 1012.7
20260506142003 66 224 10.4 22.6 0.00 0.00 0.00 71 1012.6
20260506141003 68 222 12.2 22.6 0.00 0.00 0.00 69 1012.9
20260506140003 68 233 14.8 22.6 0.00 0.00 0.00 70 1012.7
20260506135024 68 230 10.4 21.7 0.00 0.00 0.00 69 1013.0
20260506134003 68 241 11.3 20.9 0.00 0.00 0.00 70 1012.8
20260506133002 68 235 11.3 20.9 0.00 0.00 0.00 71 1013.0
20260506132003 67 222 7.8 21.7 0.00 0.00 0.00 72 1012.9
20260506131003 67 217 11.3 21.7 0.00 0.00 0.00 72 1012.7
20260506130004 66 230 10.4 24.3 0.00 0.00 0.00 74 1012.6
20260506125003 66 221 7.8 30.4 0.00 0.00 0.00 75 1012.6
20260506124003 64 217 8.7 30.4 0.00 0.00 0.00 76 1012.9
20260506123003 63 225 11.3 29.5 0.00 0.00 0.00 77 1012.9
20260506122003 63 224 12.2 22.6 0.00 0.00 0.00 79 1012.8
20260506121002 62 206 11.3 20.9 0.00 0.00 0.00 81 1013.0
20260506120003 60 219 11.3 20.9 0.00 0.00 0.00 85 1013.0
20260506115003 58 220 9.6 17.4 0.00 0.00 0.00 88 1013.2
20260506114003 57 214 9.6 18.2 0.00 0.00 0.00 88 1013.2
20260506113003 58 228 9.6 18.2 0.00 0.00 0.00 88 1013.3
20260506112003 58 220 10.4 17.4 0.00 0.00 0.00 89 1013.1
20260506111003 57 215 9.6 18.2 0.00 0.00 0.00 90 1013.1
20260506110003 56 214 8.7 18.2 0.00 0.00 0.00 91 1013.0
20260506105003 56 223 7.8 17.4 0.00 0.00 0.00 92 1013.1
20260506104003 56 227 7.8 17.4 0.00 0.00 0.00 92 1013.2
20260506103004 55 217 7.8 15.6 0.00 0.00 0.00 92 1013.1
20260506102003 55 212 8.7 15.6 0.00 0.00 0.00 93 1012.8
20260506101003 55 215 9.6 15.6 0.00 0.00 0.00 93 1012.9
20260506100003 55 214 7.0 15.6 0.00 0.00 0.00 93 1012.8
20260506095003 55 221 8.7 16.5 0.00 0.00 0.00 93 1012.9
20260506094004 55 217 7.8 17.4 0.00 0.00 0.00 93 1013.2
20260506093003 55 216 12.2 17.4 0.00 0.00 0.00 93 1013.1
20260506092003 55 218 8.7 21.7 0.00 0.00 0.00 92 1013.3
20260506091003 56 218 9.6 23.5 0.00 0.00 0.00 92 1013.3
20260506090003 56 213 7.8 23.5 0.00 0.00 0.00 93 1013.3
20260506085003 56 224 8.7 19.1 0.00 0.00 0.00 92 1013.1
20260506084003 56 211 10.4 20.9 0.00 0.00 0.00 93 1013.1
20260506083003 56 227 8.7 20.9 0.00 0.00 0.00 93 1013.2
20260506082003 56 206 13.9 20.9 0.00 0.00 0.00 94 1013.3
20260506081003 56 220 12.2 20.9 0.00 0.00 0.00 94 1013.5
20260506073004 55 230 7.0 19.1 0.00 0.00 0.00 93 1013.1
20260506072003 55 216 10.4 19.1 0.00 0.00 0.00 92 1013.3
20260506071003 55 220 13.0 20.0 0.00 0.00 0.00 92 1013.0
20260506062002 55 217 12.2 20.9 0.00 0.00 0.00 90 1013.1
20260506061024 55 210 11.3 20.9 0.00 0.00 0.00 90 1013.1